Regional Weather Roundup
Issued by NWS Wakefield, VA

Home | Current Version | Previous Version | Graphics & Text | Print | Product List | Glossary On
Versions: 1 2 3 4 5 6 7 8 9 10 11 12 13 14 15 16 17 18 19 20 21 22 23 24 25 26 27 28 29 30 31 32 33 34 35 36 37 38 39 40 41 42 43 44 45 46 47 48 49 50
000
ASUS41 KAKQ 270415
RWRAKQ

REGIONAL WEATHER ROUNDUP
NATIONAL WEATHER SERVICE WAKEFIELD VA
1200 AM EDT WED MAY 27 2015

Note: "fair" indicates few or no clouds below 12,000 feet with no
significant weather and/or obstructions to visibility. * = Denotes
station may not report precipitation (e.g., rain,snow,etc.),
thunder or fog.

VAZ042-051-052>054-056-270500-
NORTHERN VIRGINIA

CITY           SKY/WX    TMP DP  RH WIND       PRES   REMARKS
WASH NATIONAL  MOCLDY    77  67  71 S10       30.16S
DULLES         CLOUDY    76  66  71 S6        30.15S
FORT BELVOIR   MOCLDY    73  67  83 SE6       30.15S
QUANTICO       MOCLDY    75  68  78 S7        30.16S
FREDERICKSBRG* PTCLDY    76  68  77 S8        30.15S
STAFFORD*      PTCLDY    72  65  79 SE5       30.20S
WARRENTON      MOCLDY    76  69  77 S5        30.15S
CULPEPER*      PTCLDY    74  67  77 SW3       30.16S
MANASSAS*      MOCLDY    75  68  78 S3        30.15S
LEESBURG*      CLOUDY    75  72  88 S9        30.16R
WINCHESTER     PTCLDY    70  64  83 S3        30.15S
FRONT ROYAL*   FAIR      70  68  94 S3        30.14S
LURAY*         FAIR      72  72 100 SW7       30.17R
$$

VAZ048-049-060>072-079>083-270500-
CENTRAL AND SOUTH CENTRAL VIRGINIA

CITY           SKY/WX    TMP DP  RH WIND       PRES   REMARKS
RICHMOND       PTCLDY    76  68  76 S10       30.20R
CHESTERFIELD*  NOT AVBL
PETERSBURG*    CLEAR     75  73  93 S6        30.21S
HANOVER        PTCLDY    77  67  71 S9        30.20S
TAPPAHANNOCK*  PTCLDY    74  64  69 S9        30.20R
QUINTON*       FAIR      74  69  82 S5        30.20R
CHARLOTTSVILLE CLEAR     74  66  76 CALM      30.17S
GORDONSVILLE*  FAIR      68  66  94 CALM      30.17R
ORANGE*        CLEAR     73  68  83 S5        30.18S
LOUISA*        CLEAR     73  66  78 S3        30.16S
BUMPASS*       MOCLDY    73  66  80 SE6       30.17S
FARMVILLE*     CLEAR     73  67  83 S7        30.17S
CREWE*         FAIR      74  68  82 S6        30.20S
FORT PICKETT*  FAIR      73  70  88 S9G17     30.21R
CHASE CITY*    FAIR      77  74  89 S8        30.21R
CLARKSVILLE*   FAIR      73  70  88 S8        30.21R
SOUTH HILL*    MOCLDY    74  68  83 S12G21    30.27S
LAWRENCEVILLE* FAIR      73  70  88 S7        30.22S
EMPORIA*       MOCLDY    73  68  83 SE9       30.24S
$$

VAZ088>098-270500-
SOUTHEAST VIRGINIA

CITY           SKY/WX    TMP DP  RH WIND       PRES   REMARKS
NORFOLK        CLEAR     73  64  73 S14G20    30.23F
VIRGINIA BEACH PTCLDY    74  65  73 S10G18    30.24F
NORFOLK NAVAL  MOCLDY    78  65  63 S10G23    30.25S
WEST POINT*    PTCLDY    77  66  69 S9        30.22R
SALUDA*        FAIR      74  67  79 S13G21    30.20S
NEWPORT NEWS   CLEAR     77  66  68 S16G25    30.23S
LANGLEY AFB    CLEAR     73  67  79 S16G23    30.22S
FORT EUSTIS    CLEAR     74  68  83 S7G20     30.21R
WILLIAMSBURG*  PTCLDY    77  70  78 S9G16     30.23S
HR EXEC AP*    FAIR      72  64  78 S8        30.26S
FRANKLIN*      MOCLDY    72  67  85 S8        30.25R
WAKEFIELD      PTCLDY    74  68  81 S7        30.23R
$$

VAZ020-022-025-037-045-270500-
WEST CENTRAL AND SOUTHWEST VIRGINIA

CITY           SKY/WX    TMP DP  RH WIND       PRES   REMARKS
STAUNTON*      CLEAR     66  65  95 CALM      30.21S FOG
WAYNESBORO*    FAIR      69  65  90 SW7       30.21S
HOT SPRINGS VA MOCLDY    64  63  98 S9        30.29S
LYNCHBURG      PTCLDY    68  64  87 S7        30.22R
DANVILLE       MOCLDY    76  69  79 VRB6      30.21R
SOUTH BOSTON*  FAIR      74  69  82 S8        30.21R
MARTINSVILLE   CLOUDY    68  68 100 CALM      30.23S
ROANOKE        PTCLDY    73  63  70 N3        30.22R
BLACKSBURG     MOCLDY    67  61  80 CALM      30.28R
DUBLIN*        MOCLDY    72  64  77 S3        30.25S
MARION*        CLOUDY    73  62  69 SW6       30.26S
HILLSVILLE*    CLOUDY    69  62  78 S5        30.26F
RICHLANDS*     NOT AVBL
WISE*          CLOUDY    70  61  73 SW8       30.24S
ABINGDON*      LGT RAIN  73  65  78 SW7       30.23R
$$

MDZ021>025-VAZ099-100-270500-
SOUTHERN MARYLAND AND THE DELMARVA PENINSULA

CITY           SKY/WX    TMP DP  RH WIND       PRES   REMARKS
PATUXENT RIVER CLEAR     73  67  81 S9        30.18S
BAY BRIDGE APT   N/A    N/A N/A N/A SE10      30.18S
LEONARDTOWN    CLEAR     72  64  78 S6        30.20S
DOVER          CLEAR     70  69  94 S13       30.16F
GEORGETOWN     CLEAR     70  64  81 S9G18     30.21F
EASTON         PTCLDY    74  70  86 S12       30.22F
CAMBRIDGE      CLEAR     73  68  83 S9        30.19F
SALISBURY      CLEAR     69  64  84 S8        30.22S
OCEAN CITY     CLEAR     68  62  81 SW12      30.24S
WALLOPS ISLAND CLEAR     67  65  93 S16G23    30.24S
ACCOMACK*      CLEAR     72  68  88 S12G18    30.23S
$$

NCZ012>017-030>032-270500-
NORTH CENTRAL AND EASTERN NORTH CAROLINA

CITY           SKY/WX    TMP DP  RH WIND       PRES   REMARKS
ROANOKE RAPIDS CLOUDY    72  68  88 S9        30.24S
RALEIGH        MOCLDY    75  68  78 S9        30.24R
ELIZABETH CITY CLEAR     71  66  84 S9        30.26F
AHOSKIE*       PTCLDY    72  67  84 S7        30.25S
EDENTON*       CLEAR     71  66  82 S8        30.27S
CURRITUCK*     CLEAR     73  64  73 S6        30.27F
KILL DEVIL HLS CLEAR     72  64  76 SW6       30.27F
MANTEO         CLEAR     73  65  77 SW16      30.29S
CAPE HATTERAS  PTCLDY    73  63  70 S14       30.31R
TARBORO*       MOCLDY    73  68  83 S3        30.27R
GOLDSBORO      PTCLDY    73  69  88 S1        30.25R
WASHINGTON     PTCLDY    72  66  83 SE6       30.27S
GREENVILLE     CLEAR     72  70  94 S7        30.27S
NEW BERN       CLEAR     71  66  84 S5        30.29S
WILMINGTON     PTCLDY    75  69  81 S9        30.27F
$$

VAZ048-270500-
ELSEWHERE

CITY           SKY/WX    TMP DP  RH WIND       PRES   REMARKS
HARRISBURG PA  MOCLDY    75  67  76 S7        30.13S
BALTIMORE      MOCLDY    71  65  81 CALM      30.16S
ANNAPOLIS      CLEAR     71  66  84 S14       30.16F
ANDREWS AFB    PTCLDY    71  66  84 S8        30.16S
PHILADELPHIA   PTCLDY    74  63  68 SW9       30.18S
HENDERSON NC   MOCLDY    74  67  78 S9        30.24R
GREENSBORO     CLOUDY    76  67  73 S13G20    30.21S
ROCKY MOUNT    CLOUDY    74  69  85 S6        30.26R
$$

VAZ100-270500-
MARINE

STATION/POSITION TIME  TEMP    WIND        PRES    WAVE   SWELL
                       AIR SEA DIR/SP/G            HT/PER HT/PER
                 (UTC) (F)     (DEG/KT/KT) (MB)    (FT/S) (FT/S)
BRANDYWINE LGT   0300   69 65  200/ 16/ 18 1022.9F
CAPE MAY NJ      0300   66 69  180/  8/ 13 1022.9F
LEWES DE         0300   71 64  200/  9/ 14 1022.9F
15NM E FENWICK I 0350   65 61              1023.5F   4/ 5
OCEAN-CITY-INLET 0300   64 65  230/ 10/ 12 1023.8F
WACHAPREAGUE VA  0300   72 77  200/ 15/ 19 1023.8R
THOMAS POINT MD  0400   71 68  170/ 17/ 18 1022.0F
GOOSES REEF MD   0400   70 67  180/ 16/ 17 1022.6S   2/ 3
COVE POINT MD    0300   70     190/ 17/ 19 1022.7F
SOLOMONS ISLAND  0300      71                N/A
BISHOPS HEAD MD  0300   73 72  170/ 16/ 18 1022.4R
PINEY POINT MD   0300          170/ 10/ 11   N/A
CAMBRIDGE MD     0300   73 71  160/  6/ 11 1022.3S
LEWISETTA VA     0300   73 71              1022.0S
RAPPAHANNOCK LGT 0300          170/ 21/ 23 1023.7R
STINGRAY PT      0400   74 71  190/ 17/ 21 1022.7R   3/ 3
YORK RVR RNG VA  0306   74     190/ 19/ 23 1022.5R
YORKTOWN VA      0300   75 72  180/ 12/ 15 1022.9S
JAMESTOWN VA     0400   74 75  190/ 12/ 16 1022.5R
DOMINION TERM VA 0300   74     180/ 16/ 20 1023.6S
KIPTOPEKE VA     0300      77  180/ 12/ 15   N/A
CHES BAY BRIDGE  0300   74 70  170/ 19/ 23 1023.5F
CAPE HENRY VA    0300   73     180/ 13/ 18 1023.0R
CHESAPEAKE LGHT  0300   68     180/ 21/ 21 1024.9R
WILLOUBY STN VA  0300   74     180/ 22/ 24 1024.3F
CAPE HENRY BUOY  0328      63                N/A     3/ 5
1ST LANDING BUOY 0400      69              1023.5F
CAPE CHARLES BUO 0326      65                N/A     3/ 5   2/ 8
OFFSHORE WE BUOY 0311      65                N/A     4/ 5   2/ 8
64NM E OF VA BCH 0350   66 63  180/ 10/ 12 1025.3S   3/ 6   2/ 6
DUCK PIER NC     0300   73 60  190/ 14/ 17 1024.2S
44100 DUCK FRF   0324      64                N/A     3/ 6
44056 DUCK FRF   0311      62                N/A     2/ 6
OREGON INLET NC  0300   74 78  180/ 17/ 19 1025.7R
HATTERAS NC      0300   74 76  190/  5/  9 1025.7R
DIAMOND SHLS NC  0350   74 76  180/ 16/ 19 1026.1R   3/ 5   2/13
CAPE LOOKOUT NC  0400   74     170/ 14/ 16 1025.5F
$$



USA.gov is the U.S. government's official web portal to all federal, state and local government web resources and services.